Weather History for Omaha Offutt, NE

Change the Weather History Date:

Monday, November 18, 2013

  Actual Average Record
Temperature  
Mean Temperature 42 °F -  
Max Temperature 57 °F 47 °F 73 °F (1999)
Min Temperature 26 °F 29 °F 5 °F (2014)
Degree Days  
Heating Degree Days 24    
Moisture  
Dew Point 28 °F    
Average Humidity 75    
Maximum Humidity 99    
Minimum Humidity 25    
Precipitation  
Precipitation 0.00 in - - ()
Sea Level Pressure  
Sea Level Pressure 30.21 in    
Wind  
Wind Speed 4 mph (SSW)    
Max Wind Speed 7 mph    
Max Gust Speed -    
Visibility 10 miles    
Events      
Averages and records for this station are not official NWS values.
T = Trace of Precipitation, MM = Missing Value Source: NWS Daily Summary

Daily Weather History Graph

Daily Weather History Graph

Search for Another Location

Airport:

Trip Planner

Search our weather history database for the weather conditions in past years. The results will help you decide how hot, cold, wet, or windy it might be!

Date:

Astronomy

Nov. 18, 2013 Rise Set
Actual Time 7:15 AM CST 5:02 PM CST
Civil Twilight 6:45 AM CST 5:31 PM CST
Nautical Twilight 6:11 AM CST 6:05 PM CST
Astronomical Twilight 5:39 AM CST 6:38 PM CST
Moon 6:05 PM CST (11/18) 8:04 AM CST (11/18)
Length of Visible Light 10h 46m
Length of Day
9h 46m
Full, 99% of the Moon is Illuminated
Nov 18
Full
Nov 25
Last Quarter
Dec 2
New
Dec 9
First Quarter
Dec 17
Full

Hourly Weather History & Observations

Time (CST) Temp. Windchill Dew Point Humidity Pressure Visibility Wind Dir Wind Speed Gust Speed Precip Events Conditions
12:58 AM 35.6 °F 32.8 °F 34.0 °F 94% 30.10 in 10.0 mi SSW 3.5 mph - N/A   Clear
1:58 AM 34.2 °F 29.0 °F 33.4 °F 97% 30.11 in 10.0 mi West 5.8 mph - N/A   Clear
2:58 AM 30.9 °F 24.3 °F 30.7 °F 99% 30.13 in 10.0 mi WSW 6.9 mph - N/A   Clear
3:58 AM 27.3 °F 20.9 °F 27.1 °F 99% 30.14 in 10.0 mi NW 5.8 mph - N/A   Clear
4:58 AM 29.3 °F 23.2 °F 28.9 °F 99% 30.16 in 10.0 mi NW 5.8 mph - N/A   Clear
5:58 AM 28.4 °F - 28.0 °F 99% 30.18 in 10.0 mi Calm Calm - N/A   Clear
6:58 AM 28.6 °F 24.8 °F 27.7 °F 96% 30.22 in 10.0 mi SW 3.5 mph - N/A   Clear
7:58 AM 26.6 °F - 26.2 °F 99% 30.24 in 10.0 mi South 2.3 mph - N/A   Clear
8:58 AM 35.2 °F 30.3 °F 31.5 °F 86% 30.26 in 10.0 mi SW 5.8 mph - N/A   Clear
9:58 AM 39.2 °F 34.2 °F 31.1 °F 73% 30.29 in 10.0 mi WSW 6.9 mph - N/A   Clear
10:58 AM 42.8 °F - 30.9 °F 63% 30.30 in 10.0 mi Variable 1.2 mph - N/A   Clear
11:58 AM 47.3 °F - 30.2 °F 52% 30.27 in 10.0 mi SSW 2.3 mph - N/A   Clear
12:58 PM 51.4 °F - 30.6 °F 45% 30.25 in 10.0 mi Variable 2.3 mph - N/A   Clear
1:58 PM 56.3 °F - 29.7 °F 36% 30.22 in 10.0 mi Variable 4.6 mph - N/A   Clear
2:58 PM 57.9 °F - 23.2 °F 26% 30.20 in 10.0 mi SSW 6.9 mph - N/A   Clear
3:58 PM 56.7 °F - 21.0 °F 25% 30.20 in 10.0 mi SSW 5.8 mph - N/A   Clear
4:58 PM 53.2 °F - 21.7 °F 29% 30.20 in 10.0 mi SW 2.3 mph - N/A   Clear
5:58 PM 41.9 °F - 26.4 °F 54% 30.22 in 10.0 mi Calm Calm - N/A   Clear
6:58 PM 33.3 °F - 27.5 °F 79% 30.23 in 10.0 mi East 2.3 mph - N/A   Clear
7:58 PM 30.9 °F 27.5 °F 28.2 °F 90% 30.23 in 10.0 mi East 3.5 mph - N/A   Clear
8:58 PM 29.1 °F 23.0 °F 26.8 °F 91% 30.24 in 10.0 mi East 5.8 mph - N/A   Clear
9:58 PM 31.6 °F 27.0 °F 27.3 °F 84% 30.24 in 10.0 mi East 4.6 mph - N/A   Clear
10:58 PM 28.9 °F 23.9 °F 26.4 °F 90% 30.23 in 10.0 mi ESE 4.6 mph - N/A   Clear
11:58 PM 29.8 °F 24.9 °F 25.3 °F 83% 30.23 in 10.0 mi ESE 4.6 mph - N/A   Clear